Wind from 309 at 1 knots gusting 6

Air temperature 13.9° C
Dewpoint 8.3° C

Last reported at 2014-Apr-17 02:11 UTC.
Time now 2014-Apr-17 03:59 UTC

Location: N 41°18' E 001°60'.
View on Google Maps.

See reports from other nearby stations

Tides Stations Pressure Air Temp Water Temp Dewpoint Dewpoint depression Visibility Wind Speed Wind Dir Waves Ship positions

  
sailing weather and tide predictions

CW8593 Gava ES weather

date/time (UTC)wind fromknots sea level pressurealtimeterstation pressurevisibilityair tempwater tempwave heightnotes
2014-Apr-17 02:11 309 1 gusting 6 13.9
2014-Apr-17 01:41 332 2 gusting 6 13.9
2014-Apr-17 01:31 346 2 gusting 6 13.9
2014-Apr-17 01:11 340 1 gusting 4 13.9
2014-Apr-17 01:01 342 1 gusting 4 13.9
2014-Apr-17 00:31 355 1 gusting 4 13.9
2014-Apr-16 23:41 051 1 gusting 2 13.9
2014-Apr-16 22:11 083 1 gusting 2 13.3
2014-Apr-16 21:31 083 13.3
2014-Apr-16 21:11 083 13.9
2014-Apr-16 21:01 083 13.9
2014-Apr-16 20:31 083 13.9
2014-Apr-16 20:01 083 13.9
2014-Apr-16 19:41 083 0 gusting 2 13.9
2014-Apr-16 19:31 083 14.4
2014-Apr-16 19:11 083 15.0
2014-Apr-16 19:01 083 1 gusting 4 15.0
2014-Apr-16 18:41 079 1 gusting 6 15.0
2014-Apr-16 18:31 084 1 gusting 6 15.0
2014-Apr-16 18:11 146 2 gusting 6 15.0
2014-Apr-16 17:41 123 3 gusting 6 15.6
2014-Apr-16 17:31 113 3 gusting 7 15.6
2014-Apr-16 17:01 123 2 gusting 8 16.1
2014-Apr-16 16:31 153 3 gusting 7 16.1
2014-Apr-16 15:41 136 4 gusting 6 16.7
2014-Apr-16 14:31 126 3 gusting 10 17.2
2014-Apr-16 14:11 128 1 gusting 10 17.2
2014-Apr-16 13:01 141 2 gusting 14 17.2
2014-Apr-16 12:31 163 5 gusting 12 17.8
2014-Apr-16 12:11 153 5 gusting 13 17.2
2014-Apr-16 11:41 206 6 gusting 13 17.8
2014-Apr-16 11:31 164 6 gusting 13 17.8
2014-Apr-16 10:41 145 5 gusting 17 17.8
2014-Apr-16 10:31 183 8 gusting 13 17.8
2014-Apr-16 09:41 194 5 gusting 13 17.2
2014-Apr-16 08:31 193 2 gusting 6 17.2
2014-Apr-16 08:01 138 1 gusting 5 16.7
2014-Apr-16 07:31 111 1 gusting 4 17.2
2014-Apr-16 07:11 032 0 gusting 2 17.2
2014-Apr-16 07:01 308 17.2
2014-Apr-16 06:31 307 15.6
2014-Apr-16 06:01 308 13.3
2014-Apr-16 05:41 308 12.8
2014-Apr-16 05:31 308 12.8
2014-Apr-16 05:01 307 0 gusting 1 12.8
2014-Apr-16 04:41 307 12.2
2014-Apr-16 04:31 308 1 gusting 2 12.8
2014-Apr-16 04:11 308 12.8
2014-Apr-16 03:41 307 13.3
2014-Apr-16 03:31 308 13.9
2014-Apr-16 02:41 308 15.0
2014-Apr-16 02:31 307 0 gusting 5 15.0
2014-Apr-16 02:11 307 2 gusting 6 15.0
2014-Apr-16 02:01 316 1 gusting 5 15.0
2014-Apr-16 01:11 327 1 gusting 2 15.0
2014-Apr-16 00:31 341 0 gusting 2 15.0
2014-Apr-16 00:01 341 15.0
2014-Apr-15 23:41 341 15.0
2014-Apr-15 23:31 341 15.0
2014-Apr-15 23:01 341 1 gusting 2 15.6
2014-Apr-15 22:31 236 1 gusting 2 15.6
2014-Apr-15 22:01 235 15.6
2014-Apr-15 21:41 196 0 gusting 2 15.0
2014-Apr-15 20:41 196 0 gusting 1 15.0
2014-Apr-15 20:01 196 15.6
2014-Apr-15 19:31 197 16.1
2014-Apr-15 19:11 197 16.1
2014-Apr-15 19:01 196 0 gusting 2 16.7
2014-Apr-15 18:31 196 0 gusting 4 17.2
2014-Apr-15 18:11 196 0 gusting 7 17.2
2014-Apr-15 17:41 200 2 gusting 6 18.3
2014-Apr-15 17:11 217 1 gusting 7 18.3
2014-Apr-15 17:01 232 2 gusting 7 18.3
2014-Apr-15 16:11 141 5 gusting 10 18.9
2014-Apr-15 15:41 207 2 gusting 10 18.9
2014-Apr-15 15:11 196 6 gusting 10 18.9
2014-Apr-15 15:01 142 6 gusting 14 19.4
2014-Apr-15 14:31 186 8 gusting 13 19.4
2014-Apr-15 14:11 233 6 gusting 18 20.0
2014-Apr-15 13:41 166 5 gusting 13 19.4
2014-Apr-15 13:31 163 5 gusting 13 20.0
2014-Apr-15 12:41 123 6 gusting 12 19.4
2014-Apr-15 11:41 175 4 gusting 6 20.0
2014-Apr-15 11:11 140 2 gusting 6 18.9
2014-Apr-15 10:31 096 5 gusting 7 20.0
2014-Apr-15 10:11 090 0 gusting 5 20.0
2014-Apr-15 09:31 110 1 gusting 7 20.0
2014-Apr-15 09:01 075 1 gusting 6 20.0
2014-Apr-15 08:41 059 0 gusting 4 19.4
2014-Apr-15 08:01 014 0 gusting 6 18.3
2014-Apr-15 07:41 013 2 gusting 5 17.8
2014-Apr-15 07:31 303 17.8
2014-Apr-15 07:01 298 1 gusting 6 16.7
2014-Apr-15 06:31 297 4 gusting 7 16.1
2014-Apr-15 05:41 024 14.4
2014-Apr-15 05:11 024 14.4
2014-Apr-15 04:41 024 14.4
2014-Apr-15 04:31 024 14.4
2014-Apr-15 04:01 024 14.4
2014-Apr-15 03:11 024 0 gusting 2 14.4